Location: Newark
(34.0131°N, 4.3314°W)
Time: 19:51:19
(UTC+00:00)

Explorer 7 - Pass Details

Date: 20 October 2019
Orbit: 485 x 680 km, 50.3° (Epoch: 22 November)

Event Time Altitude Azimuth Distance (km) Brightness Sun altitude
Rises 18:21:22 0° 308° (NW) 2,647 11.1 -9.8°
Reaches altitude 10° 18:23:32 10° 305° (NW) 1,784 10.2 -10.2°
Maximum altitude 18:27:33 64° 224° (SW) 617 7.3 -11.0°
Drops below altitude 10° 18:31:50 10° 143° (SE) 1,895 9.2 -11.9°
Enters shadow 18:33:32 - 141° (SE) 2,567 9.9 -12.3°
Sets 18:34:11 0° 140° (SE) 2,828 - -12.4°
